Wind_Speed
52 52 49 45 45 45 43 44 44 43 43 43 45 45 44 45 45 45 45 43 45 44 44 43 45 46 47 47 49 47 47 49 50 51 53 57 59 63 65 71 76 80 82 84 83 83 83 84 86
50 46 43 43 44 44 41 41 41 41 38 38 36 40 41 44 44 44 46 47 45 42 39 39 42 42 42 43 45 46 43 41 42 45 48 53 55 54 54 57 62 67 73 74 73 73 75 79 77
45 45 43 43 47 43 40 38 41 39 38 40 39 35 40 41 42 43 44 44 44 43 43 41 41 44 42 42 41 41 41 38 39 42 46 48 50 48 48 51 51 54 57 63 65 64 61 62 66
47 44 42 45 45 43 40 40 39 37 37 36 37 36 38 42 43 44 44 45 46 49 48 44 45 44 43 40 40 39 40 39 38 41 43 43 39 37 41 41 44 44 45 48 48 49 50 53 56
46 44 41 43 46 46 41 39 37 34 36 37 36 38 39 43 46 48 49 44 46 49 49 44 45 46 43 41 39 37 37 34 35 37 37 35 28 20 30 37 34 34 36 38 41 45 47 46 46
45 44 41 40 45 44 42 40 34 34 36 37 38 40 44 45 48 53 52 46 44 48 49 47 45 44 44 44 41 37 35 30 35 34 34 34 29 35 33 34 25 27 24 23 26 25 30 36 35
48 47 42 41 46 47 46 34 30 33 35 37 41 43 46 47 50 53 51 50 51 50 47 45 45 44 44 41 39 35 34 32 30 31 34 33 29 38 43 37 35 34 26 21 16 14 13 17 19
51 45 41 39 49 51 51 38 36 37 38 39 42 46 46 49 51 51 52 52 55 49 45 43 44 45 42 40 39 36 35 34 34 30 29 31 29 33 43 42 46 40 28 27 19 19 17 15 16
49 42 41 46 55 58 54 45 38 36 37 41 44 47 49 48 53 55 55 57 60 51 42 40 43 43 40 39 38 36 35 33 36 28 31 34 33 32 39 46 42 39 32 30 21 19 19 12 13
48 45 44 53 55 55 51 47 42 38 37 42 44 46 51 52 55 54 58 59 58 51 43 39 42 44 39 39 36 36 34 33 31 30 37 36 34 34 42 44 46 40 36 32 22 14 14 12 11
50 45 50 51 56 55 51 48 44 42 43 46 47 52 55 57 57 57 55 55 58 52 40 39 40 43 38 38 36 36 33 35 30 26 31 32 29 30 43 48 49 47 37 30 18 19 22 18 16
49 47 47 53 58 55 55 52 45 47 50 54 54 56 58 58 60 57 55 53 57 55 38 36 38 40 36 36 36 37 33 34 28 25 27 30 24 28 50 52 52 45 40 34 20 27 24 22 19
50 53 56 57 60 57 56 52 52 52 58 58 59 60 59 59 58 57 53 54 54 53 42 35 36 36 32 33 35 35 33 30 26 24 24 25 19 23 39 48 43 44 35 27 27 22 21 20 24
61 60 61 59 59 60 60 57 58 58 62 61 62 59 59 56 55 54 57 53 54 53 44 36 36 34 28 31 33 33 32 28 23 22 25 24 18 19 38 38 45 42 31 34 32 28 26 25 25
63 64 63 63 64 65 67 57 63 65 68 65 63 60 60 56 54 56 52 55 57 52 46 35 35 31 26 28 31 32 33 27 22 22 27 27 25 25 40 34 40 46 42 47 42 38 35 35 32
72 72 69 66 69 67 70 52 64 66 69 67 64 63 60 58 56 57 53 57 58 51 44 33 34 29 25 28 30 29 29 29 22 21 29 32 30 32 38 36 37 37 42 45 45 43 40 38 35
74 70 68 68 70 68 64 46 56 65 67 67 67 66 64 61 61 57 54 57 53 47 39 32 33 28 23 25 28 27 29 31 21 21 27 37 35 36 37 45 40 43 44 46 45 49 47 46 42
79 78 74 71 71 74 70 62 64 68 66 66 69 71 70 69 61 58 52 55 49 46 35 31 33 26 23 25 26 26 29 29 20 21 28 42 43 44 41 46 48 53 52 48 45 46 46 44 44
83 78 76 74 75 75 75 68 69 69 73 71 72 71 70 67 62 62 57 60 48 46 35 32 31 25 22 24 22 22 25 29 17 17 30 45 49 46 49 52 53 55 53 52 52 45 44 34 33
87 83 83 83 84 82 81 73 70 71 73 71 71 72 68 64 63 57 58 54 48 44 35 34 30 25 21 25 20 20 23 25 20 15 24 39 54 52 52 53 56 60 62 63 56 54 46 40 37
90 91 89 89 89 89 88 79 73 73 74 69 62 63 64 63 58 57 58 54 47 39 35 35 31 25 22 22 17 17 22 21 23 17 9 30 56 59 55 56 57 59 63 60 62 60 63 62 57
88 89 89 88 89 84 84 76 72 70 73 65 63 62 63 63 56 56 49 46 47 38 37 36 32 25 25 20 15 15 18 21 21 21 13 9 31 60 64 61 59 62 60 62 62 65 61 61 59
87 88 87 90 82 74 66 77 61 71 65 67 66 63 61 58 55 52 45 48 46 34 39 37 33 28 26 19 17 14 16 18 19 21 20 13 7 30 61 67 67 63 62 66 61 61 61 65 61
87 86 81 75 70 63 71 72 59 64 60 64 66 60 56 58 52 43 43 52 40 41 40 39 36 29 27 22 18 14 14 16 16 16 17 17 12 5 22 58 66 68 68 67 65 64 60 56 57
78 75 75 72 71 70 78 70 61 57 62 57 64 48 54 45 38 43 48 55 46 47 39 39 37 31 28 24 20 16 13 15 15 15 16 18 12 10 5 16 36 62 67 58 59 53 50 50 49
75 71 72 72 75 79 72 62 51 59 61 52 51 50 43 34 39 44 55 52 46 46 37 41 38 33 28 26 23 19 15 15 15 15 16 17 16 12 11 5 10 20 30 47 51 45 45 47 47
80 81 80 78 73 68 58 51 43 52 50 48 38 44 37 35 41 51 58 56 47 48 38 42 38 35 29 27 28 24 18 19 17 15 16 15 15 13 12 11 6 11 22 26 35 40 39 42 46
75 72 69 65 61 51 46 45 43 48 46 40 39 40 39 40 47 57 60 56 50 50 37 41 40 37 31 30 28 29 24 24 20 18 17 16 15 12 13 10 7 7 11 18 24 28 34 40 42
64 61 60 57 52 44 39 37 46 42 46 34 38 43 42 47 51 54 58 56 52 46 36 40 40 39 33 31 32 31 32 29 23 20 19 17 16 18 18 17 11 6 6 13 22 26 28 31 36
59 56 54 51 48 39 35 37 44 40 43 36 44 46 46 50 51 55 58 54 51 49 39 38 39 37 35 36 35 33 32 32 29 23 23 22 20 20 21 18 13 11 9 10 14 18 23 26 29
Wind_Direction
268 271 271 272 273 273 271 266 266 265 272 277 285 288 295 295 295 297 298 296 297 298 299 298 294 283 281 278 278 276 273 271 269 268 264 259 258 257 256 256 257 256 255 254 254 255 256 258 259
266 267 268 268 269 270 269 266 261 264 270 278 287 291 290 294 302 303 301 302 302 298 299 299 292 284 280 277 277 276 274 274 272 272 269 266 262 259 257 257 257 257 256 255 255 256 256 257 257
264 265 264 267 269 268 269 266 263 265 267 274 286 290 296 297 294 296 301 304 307 305 303 301 296 292 286 278 278 277 275 273 271 270 268 270 270 268 264 259 257 257 255 253 254 253 253 253 255
262 262 260 266 263 265 262 260 258 259 264 274 282 293 300 303 303 303 306 298 302 304 306 302 296 297 292 283 281 280 278 276 271 270 269 270 281 283 272 264 259 259 258 256 250 249 250 253 253
257 257 259 261 264 266 261 256 259 264 271 275 282 290 298 298 303 303 305 304 305 299 300 300 296 297 292 288 284 282 281 285 285 281 273 270 253 238 288 259 248 250 250 258 254 246 244 248 250
254 252 255 259 265 262 258 257 259 260 269 279 283 288 298 297 301 304 308 307 309 304 297 293 294 294 293 292 291 287 284 292 293 278 269 272 249 224 244 237 213 218 225 221 236 239 244 246 249
250 255 253 259 262 261 258 261 266 258 263 273 283 287 294 296 298 300 304 309 307 310 297 287 289 289 289 291 292 292 293 294 293 282 278 267 244 226 220 221 198 194 199 218 213 240 244 239 240
249 252 250 254 260 264 261 260 265 262 270 278 284 283 287 294 295 302 302 305 308 313 296 282 283 287 288 291 294 296 299 303 294 293 272 267 258 235 228 212 200 192 190 211 203 219 228 232 228
248 249 246 255 261 265 267 266 265 262 272 279 283 282 282 289 293 299 302 305 305 309 295 281 282 284 285 291 293 299 303 301 293 272 266 264 260 238 228 211 197 191 192 206 202 223 231 232 238
248 247 250 255 261 267 268 263 260 267 272 282 281 279 284 291 295 300 305 305 305 309 294 276 282 284 283 289 295 301 305 301 297 271 268 270 261 240 225 217 196 199 200 207 201 218 208 204 228
247 245 247 253 257 261 268 268 268 269 272 276 277 283 289 292 295 299 301 303 303 308 297 277 279 282 281 289 296 304 304 305 298 275 273 270 252 233 222 213 197 203 201 205 184 201 201 220 240
245 250 253 254 259 263 269 267 264 270 273 277 277 282 286 292 296 295 299 302 306 307 302 278 277 277 280 290 298 303 306 308 294 275 266 263 252 234 217 212 202 204 210 212 208 215 211 216 228
251 257 257 261 264 262 263 269 270 268 274 276 279 284 288 292 292 295 297 300 302 298 302 279 275 272 277 288 299 304 312 304 288 271 257 249 248 226 213 210 219 208 213 214 200 222 223 244 248
254 256 259 260 263 265 265 267 271 275 275 275 279 283 289 290 292 293 295 297 302 295 297 283 271 267 274 289 299 308 314 307 290 262 246 236 214 220 201 209 209 209 204 198 215 225 236 241 257
250 251 251 256 259 265 267 267 274 272 277 279 280 284 288 290 290 290 289 293 296 291 289 280 268 265 274 291 299 308 319 309 288 255 232 224 218 214 202 210 216 214 215 217 227 235 248 256 262
249 250 254 257 261 261 264 267 275 276 278 280 281 283 288 289 286 289 290 287 297 287 283 273 264 263 277 292 297 308 319 322 288 262 224 211 219 208 209 199 208 219 216 213 233 241 254 256 259
254 251 254 254 257 260 269 275 276 279 279 279 279 281 283 285 287 284 285 288 293 278 273 264 258 259 275 286 294 307 326 326 295 267 227 208 215 204 208 205 204 213 222 228 233 238 247 251 258
251 253 257 257 264 265 271 273 269 276 281 281 278 280 281 282 285 281 281 288 287 266 258 253 251 254 270 281 292 312 326 329 314 267 233 206 212 208 206 210 205 210 219 222 230 237 248 247 259
252 254 253 255 259 262 268 269 273 275 278 278 277 278 279 280 279 281 277 281 275 257 247 242 243 248 262 276 292 310 327 331 329 282 229 209 206 212 215 210 211 213 216 220 232 235 235 239 241
250 251 253 254 257 261 265 270 272 277 280 276 274 273 273 276 278 276 277 276 262 247 238 234 236 241 257 270 288 305 324 331 347 327 232 215 208 208 216 220 218 220 222 227 234 231 236 236 241
254 253 255 259 263 268 267 269 272 276 282 274 271 271 273 274 272 271 272 267 246 232 229 227 230 236 251 266 283 302 315 339 1 355 287 221 212 211 212 217 221 224 228 230 232 236 240 241 245
255 257 257 259 263 270 269 267 271 274 280 273 268 268 271 273 270 269 266 247 231 219 224 224 225 231 246 258 270 295 311 331 348 1 5 276 225 216 216 217 219 224 230 232 234 233 237 241 252
258 261 261 261 266 267 268 268 265 277 272 265 267 271 275 269 264 261 249 227 222 213 220 222 222 225 241 249 262 284 307 326 339 351 359 2 267 229 222 221 222 221 225 229 239 240 243 248 249
258 260 262 262 266 269 267 269 277 271 263 263 270 271 267 264 259 247 225 225 217 206 218 221 221 222 234 242 256 272 301 318 332 346 352 356 346 306 231 229 228 227 230 233 237 238 240 242 246
258 261 263 263 263 265 270 275 274 261 264 268 267 265 259 259 245 226 218 226 218 206 214 220 220 220 230 237 247 259 284 308 322 331 344 353 341 343 287 238 231 234 234 237 239 241 245 247 250
253 254 256 260 263 269 272 270 261 265 266 262 258 256 252 242 229 209 215 226 223 210 211 221 220 220 228 236 244 252 269 288 311 319 323 339 351 349 353 301 256 236 230 236 238 243 246 247 247
252 255 259 263 265 267 265 266 261 266 269 255 252 243 234 226 210 208 212 221 225 216 207 221 223 221 227 236 244 251 261 283 294 302 311 320 329 342 354 340 326 228 232 229 233 245 249 251 253
256 258 260 262 264 263 261 262 265 267 263 256 235 231 223 215 208 210 213 219 224 226 212 221 228 225 226 236 250 253 259 274 282 290 300 306 310 311 328 329 306 318 244 230 236 247 248 248 252
253 255 258 260 259 259 258 262 265 265 257 241 226 221 212 210 210 215 215 221 222 220 213 223 228 232 230 239 252 258 258 262 270 276 289 290 297 304 311 321 313 287 272 269 259 253 251 248 250
254 255 258 260 261 260 256 258 260 255 243 219 214 215 207 208 212 217 220 223 224 219 212 227 232 234 237 239 247 254 254 260 262 268 277 282 286 290 295 303 299 275 253 243 237 244 251 255 256
Height
10783 10784 10784 10785 10786 10785 10786 10785 10783 10780 10781 10778 10775 10773 10772 10770 10769 10770 10769 10766 10764 10762 10760 10758 10755 10753 10751 10749 10749 10750 10751 10751 10752 10751 10752 10752 10753 10754 10756 10758 10758 10762 10768 10773 10775 10778 10781 10783 10785
10774 10775 10777 10777 10777 10776 10779 10777 10776 10775 10776 10771 10771 10768 10763 10762 10761 10761 10759 10759 10758 10756 10754 10752 10749 10746 10744 10743 10741 10740 10740 10741 10741 10741 10740 10740 10741 10744 10747 10748 10748 10751 10754 10758 10762 10766 10768 10770 10771
10765 10767 10769 10769 10767 10768 10770 10771 10768 10770 10769 10766 10765 10761 10757 10755 10754 10753 10753 10751 10749 10747 10746 10745 10743 10740 10739 10736 10734 10732 10731 10733 10733 10732 10730 10729 10731 10735 10738 10740 10741 10742 10744 10748 10752 10754 10755 10756 10759
10757 10759 10760 10760 10757 10760 10763 10762 10763 10764 10761 10760 10759 10754 10752 10749 10747 10746 10746 10745 10743 10741 10739 10737 10734 10733 10731 10729 10727 10725 10722 10721 10723 10722 10722 10722 10726 10726 10728 10731 10733 10735 10735 10737 10741 10743 10743 10744 10748
10747 10750 10753 10751 10749 10751 10753 10752 10759 10757 10753 10751 10751 10748 10747 10744 10740 10739 10739 10738 10737 10734 10732 10729 10727 10725 10723 10722 10721 10718 10715 10713 10711 10711 10712 10712 10720 10718 10720 10719 10722 10727 10728 10728 10730 10733 10733 10735 10740
10739 10740 10746 10743 10740 10740 10739 10744 10754 10751 10746 10744 10745 10743 10740 10736 10734 10730 10731 10730 10729 10727 10723 10721 10719 10717 10715 10713 10712 10709 10708 10707 10701 10700 10702 10701 10706 10706 10712 10710 10711 10717 10722 10722 10722 10724 10727 10731 10733
10728 10731 10739 10737 10728 10726 10727 10738 10744 10742 10741 10740 10738 10737 10733 10730 10729 10725 10724 10723 10721 10720 10716 10712 10710 10708 10707 10705 10703 10701 10700 10698 10694 10691 10689 10691 10696 10697 10695 10702 10704 10704 10710 10716 10716 10721 10722 10725 10729
10717 10723 10730 10727 10713 10712 10717 10731 10733 10734 10734 10734 10733 10729 10725 10724 10719 10718 10715 10714 10712 10712 10709 10705 10704 10701 10698 10697 10695 10692 10691 10689 10685 10684 10683 10682 10686 10688 10690 10692 10694 10699 10702 10707 10709 10714 10719 10722 10725
10707 10718 10720 10713 10701 10700 10708 10720 10724 10726 10726 10725 10723 10721 10717 10717 10711 10710 10707 10705 10703 10703 10699 10698 10696 10694 10691 10690 10687 10684 10683 10681 10676 10676 10674 10677 10679 10681 10682 10686 10693 10694 10696 10700 10702 10709 10714 10718 10721
10697 10706 10707 10695 10692 10693 10700 10708 10713 10717 10717 10715 10713 10709 10708 10709 10705 10704 10699 10695 10692 10694 10689 10689 10688 10687 10685 10682 10680 10677 10675 10673 10669 10668 10666 10668 10671 10671 10675 10681 10686 10689 10693 10695 10697 10705 10711 10715 10717
10685 10695 10689 10690 10681 10685 10691 10696 10700 10705 10706 10704 10703 10701 10701 10700 10696 10695 10691 10686 10683 10683 10681 10679 10680 10680 10679 10676 10672 10670 10668 10665 10662 10661 10658 10658 10661 10664 10667 10674 10680 10684 10687 10689 10692 10700 10705 10710 10712
10674 10679 10679 10676 10672 10676 10679 10683 10693 10693 10695 10692 10692 10693 10693 10691 10687 10684 10681 10676 10673 10671 10673 10672 10671 10673 10671 10669 10665 10663 10660 10656 10654 10653 10652 10651 10653 10654 10658 10667 10676 10680 10681 10686 10690 10696 10700 10703 10707
10665 10665 10663 10663 10661 10666 10668 10672 10676 10687 10682 10680 10682 10683 10683 10681 10678 10673 10670 10666 10664 10661 10664 10664 10664 10665 10666 10663 10659 10656 10652 10649 10647 10645 10645 10644 10647 10649 10654 10662 10670 10674 10681 10682 10686 10690 10694 10698 10703
10643 10648 10651 10654 10653 10655 10658 10661 10666 10669 10665 10671 10672 10672 10671 10670 10668 10665 10660 10655 10655 10653 10656 10657 10657 10658 10659 10656 10653 10648 10644 10641 10639 10638 10638 10638 10642 10645 10650 10657 10664 10669 10677 10678 10680 10684 10689 10693 10697
10628 10633 10637 10641 10642 10642 10639 10661 10655 10653 10651 10659 10660 10659 10659 10659 10658 10655 10651 10644 10644 10643 10647 10649 10650 10651 10652 10650 10646 10642 10637 10634 10632 10631 10632 10632 10637 10642 10648 10654 10658 10664 10673 10676 10675 10678 10684 10686 10691
10614 10617 10623 10628 10626 10628 10624 10659 10638 10640 10642 10644 10646 10646 10646 10644 10645 10644 10642 10632 10633 10633 10637 10640 10643 10645 10644 10644 10641 10637 10632 10628 10625 10624 10626 10628 10631 10637 10642 10648 10654 10658 10666 10669 10672 10675 10678 10680 10685
10600 10604 10608 10608 10609 10611 10617 10641 10630 10623 10628 10631 10632 10632 10632 10632 10632 10631 10630 10624 10623 10623 10627 10631 10636 10638 10638 10637 10635 10631 10626 10621 10618 10616 10618 10623 10625 10632 10637 10643 10648 10654 10658 10663 10667 10669 10672 10674 10678
10577 10585 10592 10598 10599 10600 10606 10622 10620 10615 10615 10619 10616 10616 10617 10619 10616 10616 10618 10613 10613 10614 10617 10623 10628 10631 10632 10631 10630 10625 10621 10617 10612 10609 10611 10615 10618 10625 10631 10636 10641 10647 10652 10658 10660 10664 10668 10669 10673
10566 10571 10578 10580 10581 10585 10590 10605 10606 10605 10601 10602 10601 10602 10602 10600 10598 10599 10603 10602 10601 10604 10608 10614 10619 10623 10625 10626 10624 10620 10617 10613 10607 10601 10602 10607 10611 10616 10623 10629 10635 10638 10643 10650 10654 10659 10661 10662 10665
10549 10555 10561 10565 10563 10567 10574 10594 10594 10588 10587 10584 10586 10586 10584 10585 10585 10585 10584 10586 10587 10594 10600 10606 10611 10616 10617 10619 10618 10615 10613 10610 10601 10596 10594 10599 10604 10609 10614 10621 10626 10630 10636 10642 10646 10651 10654 10654 10657
10531 10539 10543 10546 10548 10553 10560 10580 10580 10572 10568 10563 10568 10569 10565 10568 10570 10570 10570 10570 10574 10584 10590 10598 10604 10608 10610 10613 10611 10610 10608 10604 10598 10593 10590 10591 10597 10602 10606 10611 10616 10621 10627 10633 10638 10644 10646 10646 10649
10515 10519 10524 10530 10533 10538 10541 10565 10565 10556 10550 10547 10547 10549 10550 10551 10554 10554 10554 10558 10563 10573 10582 10590 10595 10600 10603 10606 10605 10605 10603 10600 10595 10591 10588 10585 10587 10592 10597 10601 10607 10613 10617 10620 10626 10634 10637 10640 10641
10498 10498 10507 10513 10516 10523 10530 10525 10559 10537 10536 10525 10527 10536 10538 10535 10538 10539 10542 10544 10553 10567 10575 10582 10587 10592 10596 10599 10599 10600 10598 10595 10593 10589 10584 10582 10581 10582 10586 10591 10596 10602 10605 10610 10615 10622 10627 10630 10632
10477 10482 10488 10495 10500 10512 10507 10508 10539 10519 10516 10512 10512 10522 10522 10519 10524 10527 10532 10537 10549 10557 10566 10573 10579 10584 10589 10591 10593 10593 10593 10591 10589 10586 10583 10579 10577 10576 10577 10581 10585 10591 10595 10599 10604 10610 10616 10618 10621
10460 10468 10472 10477 10484 10494 10490 10502 10507 10499 10498 10506 10496 10505 10504 10507 10512 10517 10525 10530 10539 10549 10557 10566 10571 10576 10582 10584 10586 10587 10588 10587 10586 10583 10581 10578 10575 10573 10571 10571 10573 10578 10585 10589 10593 10599 10603 10606 10610
10446 10454 10455 10463 10469 10475 10476 10483 10488 10483 10483 10488 10489 10488 10492 10498 10503 10510 10517 10525 10534 10544 10551 10558 10563 10569 10574 10577 10579 10581 10582 10583 10581 10580 10578 10576 10573 10570 10567 10565 10565 10568 10572 10578 10583 10587 10592 10596 10600
10433 10438 10442 10447 10452 10460 10462 10465 10471 10467 10469 10470 10477 10476 10484 10491 10498 10503 10510 10519 10529 10538 10542 10550 10556 10562 10566 10569 10572 10574 10575 10576 10576 10576 10575 10573 10572 10569 10565 10562 10563 10564 10567 10570 10574 10578 10581 10586 10591
10416 10421 10426 10430 10438 10445 10450 10453 10454 10454 10454 10459 10463 10469 10477 10484 10491 10496 10503 10510 10519 10530 10537 10544 10548 10554 10558 10561 10565 10567 10568 10569 10570 10570 10570 10568 10568 10567 10565 10563 10560 10558 10558 10561 10565 10569 10573 10576 10578
10399 10406 10412 10417 10424 10431 10438 10441 10439 10442 10442 10451 10454 10462 10472 10477 10483 10490 10497 10503 10513 10523 10529 10536 10541 10547 10551 10555 10558 10558 10560 10561 10563 10563 10564 10563 10562 10562 10561 10559 10557 10556 10555 10555 10557 10560 10563 10566 10568
10386 10393 10399 10404 10411 10419 10424 10430 10427 10430 10432 10442 10448 10457 10465 10472 10478 10484 10489 10497 10507 10515 10521 10529 10535 10539 10542 10545 10548 10550 10550 10552 10555 10556 10557 10557 10557 10557 10555 10554 10553 10553 10553 10554 10554 10555 10556 10557 10558